Simultaneous Nadir Overpasses (SNOs) Predictions

Prediction of SNOs between LANDSAT-8 and NOAA-19 Satellite Orbit:

Table of predicted SNOs for the next 14.0 days since TLE Epoch: 1/10/2025
Index Date (LANDSAT-8) Time (LANDSAT-8) Lat,Lon (LANDSAT-8) SZA (LANDSAT-8 ) Date (NOAA-19) Time (NOAA-19) Lat,Lon (NOAA-19) SZA (NOAA-19 ) Distance(km) Time Diff (sec)
1 01/12/2025 00:19:32 -80.01, 22.74 77.48 01/12/2025 00:19:47 -80.02, 22.88 77.46 2.92 15
2 01/14/2025 06:42:45 -79.92, -73.76 78.02 01/14/2025 06:42:13 -79.92, -73.89 78.04 2.60 32
3 01/14/2025 07:32:08 80.03, 94.75 102.14 01/14/2025 07:33:03 80.04, 94.87 102.18 2.63 55
4 01/16/2025 13:55:20 79.96, -1.62 101.60 01/16/2025 13:55:27 79.97, -1.52 101.62 2.09 7
5 01/18/2025 20:18:31 79.91, -97.82 101.06 01/18/2025 20:17:50 79.92, -97.66 101.06 3.26 41
6 01/18/2025 21:07:55 -80.02, 70.71 78.80 01/18/2025 21:08:49 -80.02, 70.81 78.77 2.02 54
7 01/21/2025 03:31:05 -79.95, -25.62 79.39 01/21/2025 03:31:12 -79.95, -25.58 79.39 0.85 7
8 01/23/2025 09:54:16 -79.87,-122.07 80.05 01/23/2025 09:53:36 -79.87,-122.02 80.05 0.83 40



Historial Predications of SNOs between LANDSAT-8 and NOAA-19
